Weather History for West Palm Beach, FL

Change the Weather History Date:

Tuesday, April 8, 2014

  Actual Average Record
Temperature  
Mean Temperature 80 °F 73 °F  
Max Temperature 92 °F 81 °F 92 °F (2004)
Min Temperature 67 °F 65 °F 45 °F (1971)
Degree Days  
Heating Degree Days 0 0  
Month to date heating degree days 0 0  
Since 1 July heating degree days 122 229  
Cooling Degree Days 15 8  
Month to date cooling degree days 82 61  
Year to date cooling degree days 630 489  
Growing Degree Days 30 (Base 50)    
Moisture  
Dew Point 70 °F    
Average Humidity 71    
Maximum Humidity 94    
Minimum Humidity 47    
Precipitation  
Precipitation 0.06 in 0.12 in 6.32 in (1918)
Month to date precipitation 0.06 1.09  
Year to date precipitation 13.94 11.63  
Snow  
Snow 0.00 in - - ()
Month to date snowfall 0.0  
Since 1 July snowfall 0.0  
Snow Depth 0.00 in    
Sea Level Pressure  
Sea Level Pressure 29.84 in    
Wind  
Wind Speed 16 mph (SSW)    
Max Wind Speed 31 mph    
Max Gust Speed 44 mph    
Visibility 10 miles    
Events Rain    
T = Trace of Precipitation, MM = Missing Value Source: NWS Daily Summary

Daily Weather History Graph

Daily Weather History Graph

Search for Another Location

Airport:

Trip Planner

Search our weather history database for the weather conditions in past years. The results will help you decide how hot, cold, wet, or windy it might be!

Date:

Astronomy

Apr. 08, 2014 Rise Set
Actual Time 7:03 AM EDT 7:40 PM EDT
Civil Twilight 6:40 AM EDT 8:04 PM EDT
Nautical Twilight 6:12 AM EDT 8:32 PM EDT
Astronomical Twilight 5:44 AM EDT 9:00 PM EDT
Moon 2:04 PM EDT (4/8) 2:43 AM EDT (4/8)
Length of Visible Light 13h 24m
Length of Day
12h 37m
Waxing Gibbous, 62% of the Moon is Illuminated
Apr 8
Waxing Gibbous
Apr 15
Full
Apr 22
Last Quarter
Apr 29
New
May 6
First Quarter

Hourly Weather History & Observations

Time (EDT) Temp. Heat Index Dew Point Humidity Pressure Visibility Wind Dir Wind Speed Gust Speed Precip Events Conditions
12:05 AM 78.1 °F - 73.9 °F 87% 29.92 in 10.0 mi South 10.4 mph - N/A   Overcast
12:50 AM 78.8 °F - 73.4 °F 83% 29.92 in 10.0 mi South 6.9 mph - 0.00 in Rain Light Rain
12:53 AM 78.1 °F - 75.0 °F 90% 29.92 in 10.0 mi SSW 5.8 mph - 0.00 in Rain Light Rain
1:09 AM 78.1 °F - 75.0 °F 90% 29.91 in 10.0 mi SSE 5.8 mph - 0.00 in   Overcast
1:53 AM 78.1 °F - 75.0 °F 90% 29.89 in 10.0 mi SSE 11.5 mph - 0.00 in Rain Light Rain
2:41 AM 78.1 °F - 73.9 °F 87% 29.87 in 10.0 mi SSE 8.1 mph - 0.00 in   Mostly Cloudy
2:53 AM 78.1 °F - 73.9 °F 87% 29.86 in 10.0 mi SSE 10.4 mph - 0.00 in   Overcast
3:18 AM 75.9 °F - 69.1 °F 79% 29.86 in 10.0 mi South 15.0 mph 27.6 mph 0.03 in Rain Light Rain
3:53 AM 73.9 °F - 70.0 °F 87% 29.86 in 10.0 mi South 12.7 mph - 0.04 in   Overcast
4:53 AM 73.9 °F - 70.0 °F 87% 29.84 in 10.0 mi South 8.1 mph - N/A   Mostly Cloudy
5:53 AM 75.9 °F - 72.0 °F 87% 29.82 in 10.0 mi South 11.5 mph - N/A   Scattered Clouds
6:53 AM 75.9 °F - 73.0 °F 91% 29.83 in 10.0 mi South 11.5 mph - N/A   Overcast
7:53 AM 77.0 °F - 73.0 °F 88% 29.84 in 10.0 mi SSW 10.4 mph - N/A   Overcast
8:53 AM 78.1 °F - 73.0 °F 84% 29.85 in 10.0 mi South 15.0 mph - N/A   Overcast
9:53 AM 81.0 °F 85.8 °F 73.0 °F 77% 29.86 in 10.0 mi SW 18.4 mph 24.2 mph N/A   Overcast
10:53 AM 82.9 °F 88.0 °F 72.0 °F 69% 29.86 in 10.0 mi SSW 15.0 mph 28.8 mph N/A   Mostly Cloudy
11:53 AM 87.1 °F 92.8 °F 71.1 °F 59% 29.84 in 10.0 mi SSW 21.9 mph 29.9 mph N/A   Mostly Cloudy
12:53 PM 89.1 °F 94.1 °F 70.0 °F 53% 29.82 in 10.0 mi SSW 23.0 mph 34.5 mph N/A   Mostly Cloudy
1:53 PM 91.0 °F 95.2 °F 68.0 °F 47% 29.79 in 10.0 mi SSW 24.2 mph 38.0 mph N/A   Mostly Cloudy
2:53 PM 88.0 °F 92.1 °F 69.1 °F 53% 29.76 in 10.0 mi SW 20.7 mph 36.8 mph N/A   Mostly Cloudy
3:53 PM 84.9 °F 88.8 °F 69.1 °F 59% 29.75 in 10.0 mi SSW 23.0 mph 34.5 mph 0.01 in   Mostly Cloudy
4:53 PM 84.9 °F 88.8 °F 69.1 °F 59% 29.75 in 10.0 mi West 20.7 mph 36.8 mph N/A   Mostly Cloudy
5:53 PM 75.9 °F - 64.9 °F 69% 29.78 in 10.0 mi West 24.2 mph 36.8 mph N/A   Mostly Cloudy
6:53 PM 73.0 °F - 64.0 °F 73% 29.79 in 10.0 mi West 16.1 mph - N/A   Mostly Cloudy
7:53 PM 72.0 °F - 64.9 °F 78% 29.82 in 10.0 mi West 17.3 mph 23.0 mph N/A   Mostly Cloudy
8:53 PM 68.0 °F - 62.1 °F 81% 29.84 in 10.0 mi West 16.1 mph - 0.00 in Rain Light Rain
9:53 PM 68.0 °F - 64.0 °F 87% 29.88 in 10.0 mi WSW 17.3 mph - 0.01 in Rain Light Rain
10:53 PM 68.0 °F - 61.0 °F 78% 29.88 in 10.0 mi WSW 11.5 mph - 0.00 in   Mostly Cloudy
11:53 PM 68.0 °F - 63.0 °F 84% 29.88 in 10.0 mi West 12.7 mph - N/A   Mostly Cloudy